| time (UTC) | temp F | wind direction | speed knots | gust knots | rain 1hr in | rain 24hr in | rain mn in | humidity % | barometer mb |
| 20260508174558 | 52 | 355 | 0.0 | 2.6 | 0.00 | 0.10 | 0.00 | 62 | 1012.0 |
| 20260508173056 | 51 | 355 | 0.0 | 2.6 | 0.00 | 0.10 | 0.00 | 65 | 1012.0 |
| 20260508171605 | 50 | 348 | 0.0 | 7.8 | 0.00 | 0.10 | 0.00 | 65 | 1012.3 |
| 20260508170059 | 50 | 337 | 1.7 | 9.6 | 0.00 | 0.10 | 0.00 | 65 | 1012.3 |
| 20260508164555 | 51 | 342 | 4.3 | 10.4 | 0.00 | 0.10 | 0.00 | 62 | 1012.3 |
| 20260508163050 | 50 | 302 | 0.9 | 7.0 | 0.00 | 0.10 | 0.00 | 68 | 1012.4 |
| 20260508161547 | 48 | 329 | 3.5 | 7.0 | 0.00 | 0.10 | 0.00 | 72 | 1012.8 |
| 20260508160048 | 47 | 312 | 6.1 | 9.6 | 0.00 | 0.10 | 0.00 | 69 | 1012.9 |
| 20260508154545 | 47 | 299 | 4.3 | 8.7 | 0.00 | 0.10 | 0.00 | 71 | 1012.8 |
| 20260508153044 | 47 | 317 | 7.0 | 12.2 | 0.00 | 0.10 | 0.00 | 69 | 1012.4 |
| 20260508151545 | 47 | 308 | 5.2 | 12.2 | 0.00 | 0.10 | 0.00 | 72 | 1012.4 |
| 20260508150044 | 46 | 292 | 0.9 | 9.6 | 0.00 | 0.10 | 0.00 | 76 | 1012.5 |
| 20260508144543 | 46 | 298 | 5.2 | 12.2 | 0.00 | 0.10 | 0.00 | 76 | 1012.4 |
| 20260508143043 | 47 | 315 | 0.9 | 7.8 | 0.00 | 0.10 | 0.00 | 74 | 1012.1 |
| 20260508141542 | 47 | 322 | 0.0 | 12.2 | 0.00 | 0.10 | 0.00 | 73 | 1011.9 |
| 20260508140041 | 48 | 284 | 5.2 | 9.6 | 0.00 | 0.10 | 0.00 | 74 | 1012.0 |
| 20260508134540 | 47 | 294 | 0.9 | 4.3 | 0.00 | 0.10 | 0.00 | 78 | 1012.1 |
| 20260508133037 | 45 | 144 | 0.0 | 4.3 | 0.00 | 0.10 | 0.00 | 82 | 1012.1 |
| 20260508131535 | 44 | 138 | 0.9 | 7.0 | 0.00 | 0.10 | 0.00 | 84 | 1012.1 |
| 20260508130044 | 44 | 194 | 0.0 | 3.5 | 0.00 | 0.10 | 0.00 | 91 | 1012.4 |
| 20260508124533 | 41 | 181 | 0.0 | 2.6 | 0.00 | 0.10 | 0.00 | 92 | 1012.2 |
| 20260508123027 | 39 | 177 | 0.0 | 2.6 | 0.00 | 0.10 | 0.00 | 93 | 1012.1 |
| 20260508121523 | 36 | 292 | 0.0 | 0.0 | 0.00 | 0.10 | 0.00 | 93 | 1012.1 |
| 20260508120021 | 35 | 292 | 0.0 | 0.0 | 0.00 | 0.11 | 0.00 | 92 | 1012.2 |
| 20260508114519 | 35 | 292 | 0.0 | 0.0 | 0.00 | 0.11 | 0.00 | 92 | 1012.4 |
| 20260508113019 | 35 | 292 | 0.0 | 0.0 | 0.00 | 0.11 | 0.00 | 92 | 1012.5 |
| 20260508111617 | 34 | 292 | 0.0 | 0.0 | 0.00 | 0.11 | 0.00 | 92 | 1012.4 |
| 20260508110015 | 34 | 292 | 0.0 | 0.0 | 0.00 | 0.11 | 0.00 | 92 | 1012.3 |
| 20260508104518 | 33 | 292 | 0.0 | 0.0 | 0.00 | 0.11 | 0.00 | 91 | 1012.1 |
| 20260508103014 | 34 | 292 | 0.0 | 0.0 | 0.00 | 0.11 | 0.00 | 90 | 1012.0 |
| 20260508101510 | 34 | 292 | 0.0 | 0.0 | 0.00 | 0.11 | 0.00 | 89 | 1012.1 |
| 20260508100013 | 35 | 292 | 0.0 | 0.0 | 0.00 | 0.11 | 0.00 | 91 | 1012.0 |
| 20260508094506 | 35 | 292 | 0.0 | 0.0 | 0.01 | 0.11 | 0.00 | 91 | 1012.0 |
| 20260508093006 | 36 | 292 | 0.0 | 0.0 | 0.01 | 0.11 | 0.00 | 92 | 1012.0 |
| 20260508091503 | 35 | 292 | 0.0 | 0.0 | 0.01 | 0.11 | 0.00 | 91 | 1012.0 |
| 20260508090002 | 36 | 292 | 0.0 | 0.0 | 0.01 | 0.11 | 0.11 | 91 | 1012.1 |
| 20260508084502 | 36 | 292 | 0.0 | 0.0 | 0.00 | 0.10 | 0.10 | 91 | 1012.1 |
| 20260508083001 | 36 | 292 | 0.0 | 0.0 | 0.00 | 0.10 | 0.10 | 92 | 1012.1 |
| 20260508081501 | 36 | 292 | 0.0 | 0.0 | 0.00 | 0.10 | 0.10 | 91 | 1012.1 |
| 20260508080110 | 36 | 292 | 0.0 | 0.0 | 0.00 | 0.10 | 0.10 | 91 | 1012.0 |
| 20260508074600 | 37 | 292 | 0.0 | 0.0 | 0.00 | 0.10 | 0.10 | 91 | 1012.1 |
| 20260508073100 | 37 | 292 | 0.0 | 0.0 | 0.00 | 0.10 | 0.10 | 91 | 1012.1 |
| 20260508071603 | 37 | 292 | 0.0 | 0.0 | 0.00 | 0.10 | 0.10 | 91 | 1011.9 |
| 20260508070142 | 36 | 292 | 0.0 | 0.0 | 0.00 | 0.10 | 0.10 | 91 | 1011.9 |
| 20260508064613 | 37 | 292 | 0.0 | 0.0 | 0.00 | 0.10 | 0.10 | 91 | 1012.1 |
| 20260508063101 | 37 | 292 | 0.0 | 0.0 | 0.00 | 0.10 | 0.10 | 91 | 1012.1 |
| 20260508061605 | 38 | 292 | 0.0 | 0.0 | 0.00 | 0.10 | 0.10 | 90 | 1012.3 |
| 20260508060058 | 38 | 292 | 0.0 | 0.0 | 0.00 | 0.10 | 0.10 | 90 | 1012.2 |
| 20260508054558 | 39 | 292 | 0.0 | 0.0 | 0.00 | 0.10 | 0.10 | 90 | 1012.1 |
| 20260508053106 | 39 | 292 | 0.0 | 0.0 | 0.00 | 0.10 | 0.10 | 90 | 1012.1 |
| 20260508051558 | 39 | 292 | 0.0 | 0.0 | 0.00 | 0.10 | 0.10 | 89 | 1012.1 |
| 20260508044557 | 40 | 292 | 0.0 | 0.0 | 0.00 | 0.10 | 0.10 | 90 | 1012.0 |
| 20260508043104 | 40 | 292 | 0.0 | 0.0 | 0.00 | 0.10 | 0.10 | 89 | 1011.8 |
| 20260508041558 | 41 | 292 | 0.0 | 0.0 | 0.00 | 0.10 | 0.10 | 90 | 1011.8 |
| 20260508040057 | 41 | 292 | 0.0 | 0.0 | 0.00 | 0.10 | 0.10 | 89 | 1011.7 |
| 20260508034557 | 41 | 292 | 0.0 | 0.0 | 0.00 | 0.10 | 0.10 | 88 | 1011.6 |
| 20260508033056 | 42 | 292 | 0.0 | 0.0 | 0.01 | 0.10 | 0.10 | 88 | 1011.7 |
| 20260508031559 | 42 | 292 | 0.0 | 0.0 | 0.01 | 0.10 | 0.10 | 88 | 1011.7 |
| 20260508030101 | 42 | 292 | 0.0 | 0.0 | 0.04 | 0.10 | 0.10 | 88 | 1011.8 |
| 20260508024559 | 42 | 298 | 0.0 | 0.0 | 0.06 | 0.10 | 0.10 | 88 | 1011.7 |
| 20260508023054 | 43 | 301 | 0.0 | 0.9 | 0.08 | 0.09 | 0.09 | 86 | 1012.1 |
| 20260508021552 | 43 | 302 | 0.0 | 7.8 | 0.08 | 0.09 | 0.09 | 85 | 1012.0 |
| 20260508020052 | 43 | 276 | 0.0 | 1.7 | 0.06 | 0.07 | 0.07 | 84 | 1011.8 |
| 20260508014553 | 43 | 248 | 6.1 | 11.3 | 0.03 | 0.04 | 0.04 | 82 | 1011.6 |
| 20260508013103 | 47 | 307 | 11.3 | 19.1 | 0.00 | 0.01 | 0.01 | 69 | 1011.1 |
| 20260508011553 | 50 | 360 | 0.0 | 0.0 | 0.00 | 0.01 | 0.01 | 63 | 1010.1 |
| 20260508010052 | 50 | 360 | 0.0 | 0.0 | 0.00 | 0.01 | 0.01 | 56 | 1009.7 |
| 20260508004530 | 50 | 360 | 0.0 | 0.0 | 0.00 | 0.01 | 0.01 | 55 | 1009.6 |
| 20260508003030 | 51 | 360 | 0.0 | 0.0 | 0.00 | 0.01 | 0.01 | 58 | 1009.5 |
| 20260508000001 | 51 | 360 | 0.0 | 0.9 | 0.00 | 0.01 | 0.01 | 54 | 1009.4 |
| 20260507234500 | 51 | 360 | 0.0 | 2.6 | 0.00 | 0.01 | 0.01 | 51 | 1009.3 |
| 20260507233100 | 52 | 355 | 2.6 | 7.0 | 0.00 | 0.01 | 0.01 | 50 | 1009.0 |
| 20260507233001 | 52 | 355 | 3.5 | 7.0 | 0.00 | 0.01 | 0.01 | 50 | 1009.0 |
| 20260507230112 | 52 | 360 | 0.0 | 7.8 | 0.00 | 0.01 | 0.01 | 49 | 1009.0 |
| 20260507224601 | 53 | 349 | 3.5 | 8.7 | 0.00 | 0.01 | 0.01 | 48 | 1009.0 |
| 20260507223059 | 53 | 11 | 0.0 | 4.3 | 0.00 | 0.01 | 0.01 | 49 | 1009.0 |
| 20260507221700 | 54 | 337 | 0.0 | 4.3 | 0.00 | 0.01 | 0.01 | 47 | 1009.0 |
| 20260507220100 | 53 | 315 | 0.0 | 9.6 | 0.00 | 0.01 | 0.01 | 47 | 1009.0 |
| 20260507214559 | 54 | 360 | 0.9 | 7.0 | 0.00 | 0.01 | 0.01 | 47 | 1009.0 |
| 20260507213106 | 55 | 330 | 5.2 | 7.8 | 0.00 | 0.01 | 0.01 | 45 | 1009.0 |
| 20260507211659 | 55 | 5 | 0.0 | 6.1 | 0.00 | 0.01 | 0.01 | 46 | 1008.9 |
| 20260507210059 | 55 | 360 | 3.5 | 6.1 | 0.00 | 0.01 | 0.01 | 45 | 1008.9 |
| 20260507204602 | 55 | 309 | 3.5 | 7.8 | 0.00 | 0.01 | 0.01 | 42 | 1008.9 |
| 20260507203057 | 56 | 9 | 0.0 | 6.1 | 0.00 | 0.01 | 0.01 | 44 | 1009.0 |
| 20260507201656 | 54 | 355 | 2.6 | 7.8 | 0.00 | 0.01 | 0.01 | 46 | 1009.1 |
| 20260507200057 | 54 | 333 | 7.0 | 13.9 | 0.00 | 0.01 | 0.01 | 45 | 1009.3 |
| 20260507194602 | 55 | 315 | 3.5 | 8.7 | 0.00 | 0.01 | 0.01 | 42 | 1009.3 |
| 20260507193055 | 55 | 339 | 4.3 | 8.7 | 0.00 | 0.01 | 0.01 | 44 | 1009.4 |
| 20260507191655 | 54 | 355 | 5.2 | 9.6 | 0.00 | 0.01 | 0.01 | 44 | 1009.6 |
| 20260507190052 | 55 | 334 | 5.2 | 10.4 | 0.00 | 0.01 | 0.01 | 44 | 1009.5 |
| 20260507184558 | 54 | 329 | 4.3 | 10.4 | 0.00 | 0.01 | 0.01 | 46 | 1009.7 |
| 20260507183049 | 55 | 311 | 5.2 | 12.2 | 0.00 | 0.01 | 0.01 | 44 | 1009.9 |
| 20260507181650 | 57 | 302 | 6.1 | 12.2 | 0.00 | 0.01 | 0.01 | 41 | 1010.0 |
| 20260507180046 | 54 | 312 | 0.9 | 11.3 | 0.00 | 0.04 | 0.01 | 45 | 1010.1 |